RH
90 84 82 86 89 92 92 86 81 84 88 82 87 84 79 71 70 77 81 85 77 84 86 88 84 80 81 84 84 87 83 82 86
92 86 87 90 88 87 92 94 88 84 83 86 84 84 83 77 73 71 79 84 84 80 89 82 81 80 81 80 83 85 81 80 81
93 87 87 86 81 84 87 95 94 89 82 84 86 85 82 80 81 81 80 80 84 82 80 90 78 81 82 81 83 84 89 87 82
91 88 95 89 89 87 85 91 93 92 87 85 88 87 87 94 83 86 86 84 81 80 80 74 78 79 83 82 83 84 89 89 82
98 94 89 86 85 91 95 94 94 93 90 85 87 87 85 86 85 83 89 84 83 81 90 76 72 73 77 83 84 84 88 87 81
79 98 86 82 78 78 78 84 97 94 92 89 87 87 88 86 84 85 84 85 81 79 79 79 74 71 77 84 87 89 85 84 84
84 82 79 79 78 78 87 94 100 98 95 92 89 89 90 89 87 83 81 78 81 81 76 75 76 77 74 82 89 91 97 99 92
76 76 76 76 77 85 88 90 90 95 100 100 95 89 86 84 82 79 81 79 78 79 80 78 76 80 85 86 87 87 93 94 97
66 64 64 64 65 68 74 82 92 96 98 98 100 99 99 98 92 86 80 80 84 83 82 79 78 79 86 99 98 98 100 99 96
61 60 58 57 58 57 57 58 62 74 81 82 85 92 99 100 99 100 100 98 87 86 86 90 87 77 96 96 78 76 78 83 100
54 53 52 49 46 46 43 46 49 54 61 70 83 99 100 100 100 100 100 97 99 97 95 95 93 95 93 90 75 74 77 86 96
43 38 36 36 33 32 31 37 48 55 65 84 100 98 98 97 99 100 100 100 100 99 99 99 95 95 96 99 92 75 55 68 71
33 30 30 32 32 30 34 54 59 69 99 99 98 97 96 95 95 95 98 100 100 100 100 99 100 99 93 88 85 81 84 77 76
29 29 31 30 30 30 33 64 74 93 95 94 94 89 86 85 86 88 93 96 96 98 100 100 99 99 99 99 99 95 99 97 80
28 29 31 31 29 30 32 38 75 86 92 90 91 87 83 82 77 79 83 90 94 97 96 95 98 100 99 99 98 98 99 94 95
28 30 32 32 31 32 33 34 38 49 80 88 93 96 89 81 79 76 74 75 79 86 93 95 95 94 97 97 99 99 99 97 86
30 33 35 36 35 35 35 35 37 46 49 72 79 70 84 93 90 85 80 74 74 74 76 83 90 94 99 100 98 99 99 98 97
33 35 37 37 37 38 39 39 39 53 52 58 72 60 64 75 88 90 79 73 69 72 75 75 75 81 88 95 97 99 99 100 100
36 38 39 38 39 40 42 44 42 42 57 48 68 82 89 72 63 88 92 77 74 73 72 71 69 72 73 79 94 98 99 100 100
39 41 40 39 40 43 45 46 46 46 50 53 61 64 87 85 78 66 70 77 75 78 77 72 66 60 60 72 75 99 100 100 100
Wind_Speed
3 3 6 4 2 4 2 1 1 2 2 3 3 4 4 4 4 3 4 5 5 5 5 5 7 9 11 12 13 15 13 14 14
3 3 2 0 2 3 1 2 1 0 1 2 3 4 4 4 5 5 5 6 6 7 7 8 8 9 11 13 14 15 15 14 14
4 5 3 1 4 4 4 3 2 1 0 1 2 2 2 4 5 6 6 7 8 8 9 10 10 9 11 13 16 17 16 15 14
5 4 4 2 2 1 5 3 2 2 1 0 1 1 2 1 2 4 5 5 7 10 10 11 10 10 11 13 16 18 17 16 15
7 5 3 1 1 1 2 2 1 1 1 0 0 1 2 2 2 3 4 5 7 7 6 9 11 12 10 13 16 19 19 17 16
3 6 5 6 2 0 4 5 2 1 1 1 1 2 1 2 2 3 4 5 7 8 8 10 11 14 12 13 14 19 21 20 18
10 8 7 6 5 1 1 1 2 2 1 1 1 2 3 3 5 5 7 6 6 8 10 11 11 13 15 15 14 16 19 18 20
9 8 7 6 6 7 6 4 3 4 4 2 1 3 3 1 2 4 5 7 5 5 6 9 8 11 10 10 16 20 20 17 12
10 10 10 9 9 9 10 10 8 6 7 6 5 5 5 2 1 1 3 5 7 4 4 5 6 7 7 7 2 8 16 14 10
10 10 11 11 9 9 8 8 7 7 6 7 7 7 6 5 5 5 2 3 4 5 4 6 4 1 9 9 6 7 16 25 8
10 10 11 12 11 10 9 9 8 7 8 9 10 10 8 7 6 6 6 2 4 5 5 5 4 3 2 4 2 4 8 15 14
11 11 12 13 14 12 11 11 10 9 10 11 12 12 13 11 10 10 8 6 6 7 9 6 2 4 6 8 4 3 7 17 17
10 11 12 11 13 14 13 14 14 13 14 15 14 12 11 11 12 12 11 11 9 5 4 9 15 7 2 6 8 9 7 7 13
9 10 11 11 11 14 16 16 17 15 13 13 14 13 13 12 10 11 13 14 14 12 10 2 1 5 10 13 8 3 9 13 11
9 9 10 10 11 12 14 16 14 16 15 13 15 15 14 13 14 14 14 15 14 12 11 10 10 4 2 12 12 11 8 11 14
8 8 9 9 11 12 9 12 13 14 6 5 8 10 13 15 14 14 15 15 15 13 13 12 11 9 7 3 11 19 15 17 13
7 8 8 9 10 12 13 9 7 11 12 3 2 2 2 6 9 11 12 14 14 15 15 14 12 11 12 11 10 18 21 19 23
7 7 7 8 9 12 13 12 9 7 10 13 3 1 1 1 3 8 10 12 12 12 13 14 13 13 11 11 13 20 21 20 21
6 6 6 6 8 8 10 10 10 7 7 6 10 7 3 1 1 2 5 8 11 12 12 11 12 12 12 11 12 13 19 22 20
6 5 5 5 6 7 7 8 9 9 8 7 4 4 3 3 1 1 2 4 7 8 9 10 10 12 12 12 11 17 16 17 18
Wind_Direction
295 244 233 273 280 314 351 275 323 351 315 295 293 294 298 301 296 286 261 241 219 206 218 226 219 214 205 196 188 171 171 164 162
19 28 48 56 234 271 330 26 266 276 252 284 288 300 309 313 303 291 261 250 239 233 229 242 230 224 219 211 198 189 178 177 174
86 77 105 195 243 254 276 301 3 0 286 231 260 278 300 316 319 306 278 252 258 251 252 235 237 232 227 221 212 204 187 184 187
109 118 67 102 101 180 244 268 304 293 347 107 231 248 269 327 315 323 302 276 282 260 260 235 239 237 236 229 222 212 201 199 196
89 104 106 123 192 331 15 36 279 309 289 262 218 282 309 327 321 310 300 277 291 288 254 254 246 238 237 243 231 225 216 211 204
101 110 94 89 111 318 271 317 341 187 206 39 55 89 64 5 357 338 315 294 289 294 271 259 261 249 247 248 238 237 229 220 212
90 98 95 91 75 54 206 184 98 112 154 199 54 64 75 55 29 13 351 322 304 299 282 280 262 261 248 234 237 238 230 225 216
85 89 87 82 82 85 91 88 82 80 80 72 350 287 278 321 2 13 359 8 333 328 306 282 269 249 233 230 238 235 247 251 223
77 79 81 84 80 79 78 78 75 75 60 58 47 51 35 358 300 59 16 18 24 27 4 327 291 249 238 223 266 318 244 233 220
76 77 76 77 76 73 71 74 74 78 84 64 59 51 48 44 66 63 21 53 50 42 37 37 60 78 174 200 324 307 325 337 240
77 78 77 74 70 72 69 71 76 77 76 77 74 66 62 53 58 72 58 60 73 51 39 52 54 69 166 197 193 63 315 316 328
86 84 80 76 72 73 74 76 79 83 77 67 62 63 54 51 47 49 52 62 96 114 62 53 72 106 101 105 59 11 334 297 284
90 85 82 81 79 73 76 78 77 78 73 68 64 64 60 53 52 43 45 50 56 45 95 99 82 63 286 285 305 308 300 267 295
91 86 81 79 84 76 73 80 77 77 81 80 80 75 69 65 54 50 47 47 46 43 47 29 174 109 65 48 24 314 277 268 273
101 94 87 83 86 88 79 80 88 87 88 88 81 80 78 72 64 59 55 51 49 46 44 43 44 18 71 43 28 11 348 285 275
105 95 85 76 76 78 91 85 82 74 115 115 88 77 73 70 64 55 54 50 50 49 48 49 48 35 29 27 42 26 18 13 294
108 95 82 73 69 71 70 75 79 63 57 77 105 143 129 57 47 50 48 46 43 43 44 43 46 45 44 49 73 42 27 26 35
116 102 88 73 65 64 63 65 74 84 59 57 68 127 72 345 45 42 38 36 37 37 35 37 36 38 38 39 53 54 38 31 36
128 112 93 75 67 65 63 59 64 73 76 75 64 74 68 52 215 69 41 29 32 34 37 34 29 27 29 30 34 28 38 34 42
137 118 98 77 66 61 63 67 63 66 69 68 71 80 86 78 94 313 1 14 16 18 21 26 27 26 24 23 22 29 27 30 40